Flag for Germany Weather past 2 weeks in Dessau-Rosslau, Saxony-Anhalt, Germany

Now
47 °F

Passing clouds.


Feels Like: 47 °F
Forecast: 36 / 50 °F
Wind: 1 mph from South

Location: Wittenberg


UV Index: 3 (Moderate)

Visibility: 19 mi


Pressure: 30.34 "Hg

Humidity: 59%

Dew point: 33 °F

Location of Dessau-RosslauLocation

Historic Weather in Dessau-Rosslau

°F

Dessau-Rosslau temperature yesterday

Maximum temperature yesterday: 54 °F (at 6:00 PM)
Minimum temperature yesterday: 40 °F (at 10:00 PM)
Average temperature yesterday: 48 °F

Past Weeks' High & Low Weather Summary

 TemperatureHumidityPressure
High70 °F (Apr 3, 6:00 PM)96% (Apr 12, 12:00 AM)30.46 "Hg (Apr 12, 12:00 AM)
Low32 °F (Apr 17, 6:00 AM)29% (Apr 16, 6:00 PM)29.65 "Hg (Apr 3, 6:00 PM)
Average50 °F71%30.05 "Hg
* Reported Apr 3 2:00 AM — Apr 17 10:00 AM, Dessau-Rosslau, Weather by CustomWeather, © 2014

Note: Actual official high and low records may vary slightly from our data, if they occured in-between our weather recording intervals... More about our weather records

Advertising

Historic Weather Conditions — Data for Previous 24 hours

 ConditionsComfort  
Time TempWeatherWind HumidityBarometerVisibility
10:00 AM
Apr 17
47 °FPassing clouds.1 mph59%30.34 "Hg19 mi
9:00 AM42 °FSunny.1 mph68%30.35 "Hg19 mi
8:00 AM36 °FPartly sunny.1 mph81%30.36 "Hg19 mi
7:00 AM32 °FOvercast.1 mph90%30.36 "Hg22 mi
6:00 AM32 °FPassing clouds.1 mph86%30.37 "Hg22 mi
4:00 AM33 °FPassing clouds.1 mph83%30.40 "Hg31 mi
3:00 AM34 °FPassing clouds.1 mph79%30.40 "Hg28 mi
1:00 AM34 °FClear.2 mph84%30.42 "Hg37 mi
12:00 AM36 °FClear.1 mph79%30.42 "Hg34 mi
10:00 PM
Apr 16
40 °FPassing clouds.1 mph65%30.43 "Hg43 mi
9:00 PM42 °FPassing clouds.1 mph65%30.43 "Hg37 mi
8:00 PM49 °FPassing clouds.1 mph50%30.42 "Hg3 mi
7:00 PM51 °FSunny.1 mph33%30.42 "Hg43 mi
6:00 PM54 °FOvercast.3 mph29%30.42 "Hg34 mi
4:00 PM52 °FOvercast.2 mph32%30.44 "Hg43 mi
2:00 PM51 °FScattered clouds.3 mph39%30.45 "Hg43 mi
12:00 PM50 °FSunny.3 mph52%30.46 "Hg15 mi
Weather by CustomWeather, © 2014

See weather overview